Dillon, CO

6:45 PM MST on February 19, 2017 (GMT -0700)
Copper Mountain

Weather History for KCCU - May, 2013

Change the Weather History Date:

Sunday, May 26, 2013

  Actual Average Record
Temperature  
Mean Temperature 50 °F -  
Max Temperature 55 °F - 59 °F (2012)
Min Temperature 44 °F - 28 °F (2004)
Degree Days  
Heating Degree Days 16    
Month to date heating degree days  
Moisture  
Dew Point 7 °F    
Average Humidity 19    
Maximum Humidity 27    
Minimum Humidity 11    
Precipitation  
Precipitation 0.00 in - 0.17 in (2015)
Sea Level Pressure  
Sea Level Pressure 30.38 in    
Wind  
Wind Speed 11 mph (SW)    
Max Wind Speed 20 mph    
Max Gust Speed 26 mph    
Visibility 10 miles    
Events Thunderstorm    
T = Trace of Precipitation, MM = Missing Value Source: NWS Daily Summary

Daily Weather History Graph

Daily Weather History Graph

Search for Another Location

Airport or City:

Trip Planner

Search our weather history database for the weather conditions in past years. The results will help you decide how hot, cold, wet, or windy it might be!

Date:

Astronomy

May. 26, 2013 Rise Set
Actual Time 5:42 AM MDT 8:21 PM MDT
Civil Twilight 5:10 AM MDT 8:52 PM MDT
Nautical Twilight 4:31 AM MDT 9:32 PM MDT
Astronomical Twilight 3:47 AM MDT 10:16 PM MDT
Moon 10:11 PM MDT (5/26) 7:14 AM MDT (5/26)
Length of Visible Light 15h 42m
Length of Day
14h 39m
Waning Gibbous, 96% of the Moon is Illuminated
May 26
Waning Gibbous
May 31
Last Quarter
Jun 8
New
Jun 16
First Quarter
Jun 23
Full

Hourly Weather History & Observations

Time (MDT) Temp. Windchill Dew Point Humidity Pressure Visibility Wind Dir Wind Speed Gust Speed Precip Events Conditions
12:12 AM 46.4 °F 42.4 °F 10.4 °F 23% 30.42 in 10.0 mi SW 8.1 mph - N/A   Clear
12:32 AM 46.4 °F 41.5 °F 8.6 °F 22% 30.42 in 10.0 mi South 10.4 mph - N/A   Clear
12:52 AM 46.4 °F 40.7 °F 8.6 °F 22% 30.42 in 10.0 mi South 12.7 mph - N/A   Clear
1:12 AM 44.6 °F 38.8 °F 10.4 °F 25% 30.41 in 10.0 mi South 11.5 mph - N/A   Clear
1:32 AM 46.4 °F 41.9 °F 8.6 °F 22% 30.41 in 10.0 mi SSW 9.2 mph - N/A   Clear
1:52 AM 44.6 °F 38.1 °F 10.4 °F 25% 30.41 in 10.0 mi South 13.8 mph - N/A   Clear
2:12 AM 44.6 °F 37.2 °F 10.4 °F 25% 30.41 in 10.0 mi South 17.3 mph - N/A   Clear
2:32 AM 44.6 °F 37.2 °F 10.4 °F 25% 30.40 in 10.0 mi South 17.3 mph - N/A   Clear
2:52 AM 44.6 °F 37.8 °F 10.4 °F 25% 30.40 in 10.0 mi South 15.0 mph - N/A   Clear
3:12 AM 44.6 °F 37.8 °F 8.6 °F 23% 30.39 in 10.0 mi South 15.0 mph - N/A   Clear
3:32 AM 44.6 °F 40.2 °F 8.6 °F 23% 30.39 in 10.0 mi SW 8.1 mph 16.1 mph N/A   Clear
3:52 AM 46.4 °F 41.5 °F 8.6 °F 22% 30.39 in 10.0 mi SSW 10.4 mph 18.4 mph N/A   Clear
4:12 AM 44.6 °F 38.8 °F 8.6 °F 23% 30.39 in 10.0 mi SSW 11.5 mph 18.4 mph N/A   Clear
4:32 AM 46.4 °F 41.1 °F 6.8 °F 20% 30.39 in 10.0 mi SSW 11.5 mph 18.4 mph N/A   Clear
4:52 AM 44.6 °F 40.2 °F 5.0 °F 20% 30.39 in 10.0 mi SW 8.1 mph 19.6 mph N/A   Clear
5:12 AM 44.6 °F 39.2 °F 5.0 °F 20% 30.39 in 10.0 mi SSW 10.4 mph 17.3 mph N/A   Clear
5:32 AM 44.6 °F 38.4 °F 3.2 °F 18% 30.39 in 10.0 mi SSW 12.7 mph 19.6 mph N/A   Clear
5:52 AM 44.6 °F 38.8 °F 3.2 °F 18% 30.39 in 10.0 mi SSW 11.5 mph 17.3 mph N/A   Clear
6:12 AM 44.6 °F 40.2 °F 3.2 °F 18% 30.39 in 10.0 mi SSW 8.1 mph 18.4 mph N/A   Clear
6:32 AM 44.6 °F 38.8 °F 3.2 °F 18% 30.39 in 10.0 mi SSW 11.5 mph 16.1 mph N/A   Clear
6:52 AM 44.6 °F 39.7 °F 3.2 °F 18% 30.39 in 10.0 mi SSW 9.2 mph 16.1 mph N/A   Clear
7:12 AM 44.6 °F 39.7 °F 3.2 °F 18% 30.39 in 10.0 mi SSW 9.2 mph 16.1 mph N/A   Clear
7:32 AM 44.6 °F 40.2 °F 3.2 °F 18% 30.39 in 10.0 mi SSW 8.1 mph - N/A   Clear
7:52 AM 44.6 °F 39.7 °F 5.0 °F 20% 30.39 in 10.0 mi SW 9.2 mph 16.1 mph N/A   Clear
8:12 AM 44.6 °F 39.7 °F 6.8 °F 21% 30.40 in 10.0 mi SSW 9.2 mph 16.1 mph N/A   Clear
8:32 AM 44.6 °F 40.2 °F 6.8 °F 21% 30.40 in 10.0 mi SSW 8.1 mph - N/A   Clear
8:52 AM 44.6 °F 39.7 °F 6.8 °F 21% 30.41 in 10.0 mi SSW 9.2 mph - N/A   Clear
9:12 AM 46.4 °F 41.1 °F 5.0 °F 18% 30.40 in 10.0 mi SW 11.5 mph - N/A   Clear
9:32 AM 46.4 °F 41.1 °F 5.0 °F 18% 30.41 in 10.0 mi SSW 11.5 mph 18.4 mph N/A   Clear
9:52 AM 46.4 °F 42.9 °F 6.8 °F 20% 30.41 in 10.0 mi SSW 6.9 mph - N/A   Clear
10:12 AM 48.2 °F - 6.8 °F 19% 30.41 in 10.0 mi SW 6.9 mph - N/A   Clear
10:32 AM 50.0 °F - 8.6 °F 19% 30.41 in 10.0 mi SW 8.1 mph - N/A   Clear
10:52 AM 51.8 °F - 6.8 °F 16% 30.41 in 10.0 mi SSW 11.5 mph 18.4 mph N/A   Clear
11:12 AM 51.8 °F - 5.0 °F 15% 30.41 in 10.0 mi SSW 6.9 mph 18.4 mph N/A   Clear
11:32 AM 53.6 °F - 5.0 °F 14% 30.41 in 10.0 mi SSW 6.9 mph 23.0 mph N/A   Clear
11:52 AM 53.6 °F - 3.2 °F 13% 30.41 in 10.0 mi SSW 8.1 mph 19.6 mph N/A   Clear
12:12 PM 53.6 °F - 1.4 °F 12% 30.39 in 10.0 mi South 18.4 mph - N/A   Clear
12:32 PM 53.6 °F - 5.0 °F 14% 30.39 in 10.0 mi South 16.1 mph 21.9 mph N/A   Clear
12:52 PM 53.6 °F - 1.4 °F 12% 30.39 in 10.0 mi South 12.7 mph 19.6 mph N/A   Clear
1:12 PM 53.6 °F - 1.4 °F 12% 30.39 in 10.0 mi SSW 10.4 mph 21.9 mph N/A   Clear
1:32 PM 53.6 °F - 5.0 °F 14% 30.39 in 10.0 mi SW 10.4 mph - N/A   Scattered Clouds
1:52 PM 53.6 °F - 5.0 °F 14% 30.38 in 10.0 mi WSW 15.0 mph 21.9 mph N/A   Scattered Clouds
2:12 PM 53.6 °F - 1.4 °F 12% 30.38 in 10.0 mi SW 5.8 mph - N/A   Scattered Clouds
2:32 PM 53.6 °F - 5.0 °F 14% 30.38 in 10.0 mi SW 6.9 mph 16.1 mph N/A   Clear
2:52 PM 55.4 °F - 1.4 °F 11% 30.38 in 10.0 mi SW 9.2 mph - N/A   Clear
3:12 PM 55.4 °F - 3.2 °F 12% 30.38 in 10.0 mi SW 9.2 mph 18.4 mph N/A   Clear
3:32 PM 55.4 °F - 3.2 °F 12% 30.38 in 10.0 mi WSW 5.8 mph 24.2 mph N/A   Scattered Clouds
3:52 PM 55.4 °F - 5.0 °F 13% 30.36 in 10.0 mi WSW 18.4 mph 25.3 mph N/A   Mostly Cloudy
4:12 PM 55.4 °F - 5.0 °F 13% 30.36 in 10.0 mi WSW 13.8 mph 19.6 mph N/A   Mostly Cloudy
4:32 PM 55.4 °F - 8.6 °F 15% 30.36 in 10.0 mi WSW 13.8 mph 24.2 mph N/A   Scattered Clouds
4:52 PM 55.4 °F - 8.6 °F 15% 30.36 in 10.0 mi SW 9.2 mph 20.7 mph N/A   Clear
5:12 PM 55.4 °F - 5.0 °F 13% 30.36 in 10.0 mi SW 11.5 mph - N/A   Clear
5:32 PM 53.6 °F - 6.8 °F 15% 30.36 in 10.0 mi South 15.0 mph 23.0 mph N/A   Mostly Cloudy
5:52 PM 53.6 °F - 8.6 °F 16% 30.34 in 10.0 mi WSW 10.4 mph - N/A   Scattered Clouds
6:12 PM 53.6 °F - 12.2 °F 19% 30.34 in 10.0 mi SW 8.1 mph 11.5 mph N/A   Scattered Clouds
6:32 PM 53.6 °F - 12.2 °F 19% 30.34 in 10.0 mi WSW 15.0 mph - N/A   Scattered Clouds
6:52 PM 53.6 °F - 12.2 °F 19% 30.33 in 10.0 mi West 17.3 mph 25.3 mph N/A   Scattered Clouds
7:12 PM 53.6 °F - 14.0 °F 21% 30.34 in 10.0 mi West 17.3 mph 25.3 mph N/A   Mostly Cloudy
7:32 PM 53.6 °F - 14.0 °F 21% 30.35 in 10.0 mi WSW 11.5 mph 17.3 mph N/A   Overcast
7:52 PM 53.6 °F - 10.4 °F 18% 30.36 in 10.0 mi West 13.8 mph 19.6 mph N/A   Overcast
8:12 PM 53.6 °F - 12.2 °F 19% 30.36 in 10.0 mi West 12.7 mph - N/A   Mostly Cloudy
8:32 PM 48.2 °F - 12.2 °F 24% 30.36 in 10.0 mi West 19.6 mph 24.2 mph N/A   Scattered Clouds
8:52 PM 46.4 °F 39.2 °F 14.0 °F 27% 30.36 in 10.0 mi WSW 18.4 mph 26.5 mph N/A   Clear
9:12 PM 46.4 °F 39.5 °F 12.2 °F 25% 30.36 in 10.0 mi WSW 17.3 mph 23.0 mph N/A   Clear
9:32 PM 46.4 °F 40.4 °F 12.2 °F 25% 30.37 in 10.0 mi WSW 13.8 mph - N/A   Clear
9:52 PM 46.4 °F 40.7 °F 12.2 °F 25% 30.38 in 10.0 mi WSW 12.7 mph 18.4 mph N/A   Clear
10:12 PM 46.4 °F 40.4 °F 12.2 °F 25% 30.38 in 10.0 mi WSW 13.8 mph - N/A   Clear
10:32 PM 46.4 °F 40.7 °F 10.4 °F 23% 30.38 in 10.0 mi SW 12.7 mph 18.4 mph N/A   Clear
10:52 PM 46.4 °F 41.1 °F 10.4 °F 23% 30.38 in 10.0 mi SW 11.5 mph 21.9 mph N/A   Clear
11:12 PM 46.4 °F 40.4 °F 8.6 °F 22% 30.38 in 10.0 mi WSW 13.8 mph 21.9 mph N/A   Clear
11:32 PM 44.6 °F 38.4 °F 8.6 °F 23% 30.38 in 10.0 mi SW 12.7 mph 21.9 mph N/A Thunderstorm Clear
11:52 PM 44.6 °F 37.8 °F 8.6 °F 23% 30.36 in 10.0 mi SW 15.0 mph 20.7 mph N/A   Clear